JI1PZF-2 Weather Reports


time (UTC)temp
C
wind
direction
speed
KPH
gust
KPH
rain 1hr
cm
rain 24hr
cm
rain mn
cm
humidity
%
barometer
mb
20260505153324 17 211 3.2 16.1 0.00 0.00 0.00 58 1002.2
20260505152324 17 303 1.6 9.7 0.00 0.00 0.00 58 1002.3
20260505151319 17 330 3.2 8.0 0.00 0.00 0.00 57 1002.5
20260505150318 17 248 1.6 6.4 0.00 0.00 0.00 57 1002.6
20260505140320 17 216 4.8 11.3 0.00 0.00 0.00 50 1002.5
20260505124331 17 112 4.8 14.5 0.00 0.00 0.00 47 1002.3
20260505123324 17 132 3.2 19.3 0.00 0.00 0.00 47 1002.4
20260505122328 17 98 4.8 12.9 0.00 0.00 0.00 47 1002.3
20260505121332 17 115 3.2 11.3 0.00 0.00 0.00 46 1002.3
20260505120332 17 56 4.8 9.7 0.00 0.00 0.00 46 1002.3
20260505115327 17 245 3.2 24.1 0.00 0.00 0.00 46 1002.2
20260505114351 17 93 3.2 16.1 0.00 0.00 0.00 46 1002.1
20260505113334 17 295 3.2 9.7 0.00 0.00 0.00 45 1002.2
20260505112328 17 272 1.6 17.7 0.00 0.00 0.00 45 1002.1
20260505111330 17 136 8.0 14.5 0.00 0.00 0.00 45 1002.1
20260505110359 17 263 1.6 16.1 0.00 0.00 0.00 45 1002.0
20260505101313 18 297 3.2 14.5 0.00 0.00 0.00 36 1001.5
20260505100339 18 103 1.6 20.9 0.00 0.00 0.00 34 1001.3
20260505095354 18 100 6.4 16.1 0.00 0.00 0.00 34 1001.1
20260505094333 18 350 0.0 12.9 0.00 0.00 0.00 31 1001.3
20260505093313 18 343 6.4 14.5 0.00 0.00 0.00 30 1001.3
20260505092336 18 350 4.8 19.3 0.00 0.00 0.00 31 1001.0
20260505091339 18 250 3.2 17.7 0.00 0.00 0.00 35 1000.9
20260505090313 18 152 1.6 17.7 0.00 0.00 0.00 38 1000.6
20260505085329 19 158 3.2 12.9 0.00 0.00 0.00 36 1000.4
20260505084313 19 236 6.4 17.7 0.00 0.00 0.00 36 1000.4
20260505083315 20 223 6.4 20.9 0.00 0.00 0.00 37 1000.4
20260505082338 20 84 8.0 22.5 0.00 0.00 0.00 37 1000.3
20260505081320 20 49 4.8 24.1 0.00 0.00 0.00 37 1000.2
20260505080321 21 112 8.0 16.1 0.00 0.00 0.00 35 1000.1
20260505075316 21 107 4.8 14.5 0.00 0.00 0.00 34 1000.0
20260505074335 21 118 8.0 20.9 0.00 0.00 0.00 33 999.8
20260505073336 22 97 4.8 14.5 0.00 0.00 0.00 29 999.8
20260505072339 22 86 6.4 17.7 0.00 0.00 0.00 25 999.7
20260505071337 22 134 1.6 11.3 0.00 0.00 0.00 22 999.5
20260505070337 22 280 3.2 12.9 0.00 0.00 0.00 21 999.4
20260505065327 22 68 6.4 19.3 0.00 0.00 0.00 20 999.4
20260505064350 22 141 3.2 12.9 0.00 0.00 0.00 16 999.2
20260505063349 22 105 3.2 16.1 0.00 0.00 0.00 14 999.2
20260505062330 22 187 1.6 12.9 0.00 0.00 0.00 12 999.2
20260505061351 23 72 4.8 16.1 0.00 0.00 0.00 11 999.1
20260505060352 23 136 3.2 16.1 0.00 0.00 0.00 12 999.0
20260505055352 23 194 4.8 14.5 0.00 0.00 0.00 11 999.0
20260505054332 23 110 3.2 11.3 0.00 0.00 0.00 12 998.9
20260505053334 23 124 4.8 14.5 0.00 0.00 0.00 12 998.9
20260505052328 23 326 4.8 14.5 0.00 0.00 0.00 13 998.9
20260505051313 23 27 0.0 8.0 0.00 0.00 0.00 10 999.0
20260505050314 23 50 0.0 8.0 0.00 0.00 0.00 9 999.2
20260505041315 23 100 1.6 11.3 0.00 0.00 0.00 11 999.4
20260505040332 22 325 1.6 9.7 0.00 0.00 0.00 12 999.4
20260505035329 22 281 0.0 6.4 0.00 0.00 0.00 12 999.4
20260505034353 22 162 1.6 8.0 0.00 0.00 0.00 12 999.4
20260505033314 22 226 0.0 8.0 0.00 0.00 0.00 11 999.4
20260505032338 22 110 1.6 4.8 0.00 0.00 0.00 12 999.5
20260505031320 22 255 1.6 8.0 0.00 0.00 0.00 12 999.5
20260505030319 21 67 6.4 14.5 0.00 0.00 0.00 12 999.6
20260505025333 21 300 3.2 9.7 0.00 0.00 0.00 13 999.5
20260505024332 21 150 1.6 9.7 0.00 0.00 0.00 14 999.5
20260505023313 21 106 3.2 14.5 0.00 0.00 0.00 14 999.6
20260505022314 21 351 4.8 12.9 0.00 0.00 0.00 13 999.6
20260505021316 20 329 4.8 16.1 0.00 0.00 0.00 14 999.8
20260505020318 21 308 3.2 9.7 0.00 0.00 0.00 14 999.8
20260505015331 20 343 3.2 11.3 0.00 0.00 0.00 15 999.8
20260505014333 20 345 4.8 12.9 0.00 0.00 0.00 15 999.7
20260505013353 20 116 4.8 12.9 0.00 0.00 0.00 15 999.7
20260505012316 20 101 3.2 17.7 0.00 0.00 0.00 16 999.5
20260505011317 20 278 4.8 9.7 0.00 0.00 0.00 17 999.6
20260505010315 20 298 4.8 11.3 0.00 0.00 0.00 17 999.8
20260505005332 19 314 3.2 12.9 0.00 0.00 0.00 18 999.6
20260505004315 18 266 4.8 14.5 0.00 0.00 0.00 19 999.7
20260505003335 18 326 3.2 12.9 0.00 0.00 0.00 20 999.5
20260505002317 18 326 6.4 17.7 0.00 0.00 0.00 21 999.3
20260505001341 17 133 8.0 19.3 0.00 0.00 0.00 22 999.2
20260505000317 17 340 11.3 19.3 0.00 0.00 0.00 22 999.4
20260504235333 17 343 11.3 20.9 0.00 0.00 0.00 22 999.2
20260504234312 17 298 6.4 16.1 0.00 0.00 0.00 22 999.5
20260504233316 17 287 11.3 19.3 0.00 0.00 0.00 23 999.4
20260504232319 17 314 6.4 19.3 0.00 0.00 0.00 24 999.4
20260504231319 16 312 3.2 16.1 0.00 0.00 0.00 25 999.4
20260504230321 16 339 6.4 17.7 0.00 0.00 0.00 26 999.2
20260504225314 16 315 1.6 14.5 0.00 0.00 0.00 27 999.2
20260504224334 16 293 3.2 22.5 0.00 0.00 0.00 27 999.0
20260504223334 16 339 4.8 16.1 0.00 0.00 0.00 28 998.9
20260504222334 16 323 4.8 19.3 0.00 0.00 0.00 29 998.8
20260504221331 15 319 9.7 24.1 0.00 0.00 0.00 29 998.8
20260504220400 15 319 9.7 22.5 0.00 0.00 0.00 30 998.7
20260504215335 15 314 8.0 17.7 0.00 0.00 0.00 32 998.6
20260504214330 15 359 4.8 20.9 0.00 0.00 0.00 32 998.4
20260504213314 15 352 8.0 24.1 0.00 0.00 0.00 32 998.3
20260504212315 15 322 6.4 16.1 0.00 0.00 0.00 32 998.2
20260504211318 15 5 4.8 14.5 0.00 0.00 0.00 33 998.0
20260504210313 14 330 4.8 14.5 0.00 0.00 0.00 33 997.7
20260504205334 14 332 9.7 20.9 0.00 0.00 0.00 33 997.4
20260504203327 -17 0.0 0.0 0.00 0.00 0.00 997.0
20260504202313 19 94 526.3 0.0 0.00 0.00 0.00 996.7
20260504201318 -17 0.0 0.0 0.00 0.00 0.00 996.6
20260504200351 -17 0.0 0.0 0.00 0.00 0.00 996.4
20260504194316 -17 0.0 0.0 0.00 0.00 0.00 995.8
20260504193322 -17 0.0 0.0 0.00 0.00 0.00 995.6
20260504192318 -17 0.0 0.0 0.00 0.00 0.00 995.3
20260504191324 -17 0.0 0.0 0.00 0.00 0.00 995.0
20260504190329 -17 0.0 0.0 0.00 0.00 0.00 994.8
20260504185321 -17 0.0 0.0 0.00 0.00 0.00 994.6
20260504183322 -17 0.0 0.0 0.00 0.00 0.00 994.3
20260504182326 -17 0.0 0.0 0.00 0.00 0.00 994.0
20260504181332 -17 0.0 0.0 0.00 0.00 0.00 993.9
20260504180331 -17 0.0 0.0 0.00 0.00 0.00 993.8
20260504175328 14 360 6.4 16.1 0.00 0.00 0.00 36 993.7
20260504174347 14 287 6.4 16.1 0.00 0.00 0.00 36 993.2
20260504173347 14 312 9.7 19.3 0.00 0.00 0.00 37 992.9
20260504172323 14 236 8.0 27.4 0.00 0.00 0.00 37 992.6
20260504171327 14 313 4.8 17.7 0.00 0.00 0.00 37 992.4
20260504170313 14 186 9.7 25.7 0.00 0.00 0.00 36 992.2
20260504160325 15 307 8.0 30.6 0.00 0.00 0.00 35 991.0